Location: La Coruña
(43.3623°N, 8.4115°W)
Time: 07:52:44
(UTC+01:00)

STARLINK-1072 - Pass Details

Date: 19 January 2020
Orbit: 349 x 351 km, 53.0° (Epoch: 22 February)

Event Time Altitude Azimuth Distance (km) Brightness Sun altitude
Rises 18:54:35 0° 236° (SW) 2,165 8.8 -5.3°
Reaches altitude 10° 18:56:36 10° 237° (WSW) 1,325 7.3 -5.6°
Maximum altitude 18:59:33 81° 325° (NW) 366 2.8 -6.1°
Drops below altitude 10° 19:02:31 10° 53° (NE) 1,335 5.0 -6.6°
Enters shadow 19:02:50 - 53° (NE) 1,462 5.2 -6.7°
